| time (UTC) | temp C | wind direction | speed KPH | gust KPH | rain 1hr cm | rain 24hr cm | rain mn cm | humidity % | barometer mb |
| 20260503050057 | 7 | 0 | 0.0 | 1.6 | 0.00 | 0.53 | 0.00 | 96 | 1014.9 |
| 20260503044603 | 8 | 0 | 0.0 | 0.0 | 0.00 | 0.53 | 0.00 | 96 | 1014.9 |
| 20260503043050 | 8 | 0 | 0.0 | 0.0 | 0.00 | 0.53 | 0.00 | 96 | 1015.0 |
| 20260503041607 | 8 | 0 | 0.0 | 1.6 | 0.00 | 0.53 | 0.00 | 97 | 1014.9 |
| 20260503040059 | 8 | 0 | 0.0 | 0.0 | 0.00 | 0.53 | 0.00 | 97 | 1014.7 |
| 20260503034607 | 9 | 0 | 0.0 | 0.0 | 0.00 | 0.53 | 0.53 | 97 | 1014.6 |
| 20260503033058 | 8 | 0 | 0.0 | 0.0 | 0.00 | 0.53 | 0.53 | 96 | 1014.6 |
| 20260503031554 | 8 | 0 | 0.0 | 0.0 | 0.00 | 0.53 | 0.53 | 96 | 1014.5 |
| 20260503030055 | 9 | 0 | 0.0 | 0.0 | 0.00 | 0.53 | 0.53 | 96 | 1014.3 |
| 20260503024554 | 9 | 0 | 0.0 | 0.0 | 0.00 | 0.53 | 0.53 | 96 | 1014.3 |
| 20260503023053 | 10 | 0 | 0.0 | 0.0 | 0.00 | 0.53 | 0.53 | 96 | 1014.1 |
| 20260503021551 | 10 | 0 | 0.0 | 0.0 | 0.00 | 0.53 | 0.53 | 96 | 1014.1 |
| 20260503020051 | 10 | 0 | 0.0 | 0.0 | 0.00 | 0.53 | 0.53 | 95 | 1014.1 |
| 20260503014556 | 10 | 0 | 0.0 | 0.0 | 0.00 | 0.53 | 0.53 | 95 | 1014.2 |
| 20260503013055 | 10 | 0 | 0.0 | 0.0 | 0.00 | 0.53 | 0.53 | 94 | 1013.9 |
| 20260503011551 | 10 | 0 | 0.0 | 0.0 | 0.00 | 0.53 | 0.53 | 93 | 1013.8 |
| 20260503010050 | 10 | 0 | 0.0 | 0.0 | 0.00 | 0.53 | 0.53 | 93 | 1013.6 |
| 20260503004549 | 10 | 0 | 0.0 | 0.0 | 0.00 | 0.53 | 0.53 | 92 | 1013.3 |
| 20260503003047 | 11 | 0 | 0.0 | 0.0 | 0.00 | 0.53 | 0.53 | 91 | 1013.2 |
| 20260503001552 | 11 | 0 | 0.0 | 0.0 | 0.00 | 0.53 | 0.53 | 90 | 1013.1 |
| 20260503000053 | 12 | 0 | 0.0 | 0.0 | 0.00 | 0.53 | 0.53 | 89 | 1012.6 |
| 20260502234551 | 12 | 0 | 0.0 | 0.0 | 0.00 | 0.53 | 0.53 | 89 | 1012.3 |
| 20260502233054 | 12 | 0 | 0.0 | 0.0 | 0.00 | 0.53 | 0.53 | 89 | 1012.4 |
| 20260502231556 | 12 | 0 | 0.0 | 0.0 | 0.00 | 0.53 | 0.53 | 88 | 1012.2 |
| 20260502230113 | 12 | 0 | 0.0 | 0.0 | 0.00 | 0.53 | 0.53 | 88 | 1012.1 |
| 20260502224553 | 12 | 0 | 0.0 | 0.0 | 0.00 | 0.53 | 0.53 | 87 | 1012.1 |
| 20260502223053 | 12 | 0 | 0.0 | 0.0 | 0.00 | 0.53 | 0.53 | 86 | 1012.1 |
| 20260502221554 | 12 | 0 | 0.0 | 0.0 | 0.00 | 0.53 | 0.53 | 86 | 1012.1 |
| 20260502214550 | 13 | 0 | 0.0 | 0.0 | 0.00 | 0.53 | 0.53 | 83 | 1011.7 |
| 20260502213053 | 13 | 0 | 0.0 | 0.0 | 0.00 | 0.53 | 0.53 | 84 | 1011.9 |
| 20260502211555 | 13 | 0 | 0.0 | 0.0 | 0.00 | 0.53 | 0.53 | 84 | 1011.7 |
| 20260502210059 | 13 | 0 | 0.0 | 0.0 | 0.00 | 0.53 | 0.53 | 83 | 1011.9 |
| 20260502204554 | 13 | 0 | 0.0 | 0.0 | 0.00 | 0.53 | 0.53 | 83 | 1012.0 |
| 20260502203054 | 13 | 0 | 0.0 | 0.0 | 0.00 | 0.53 | 0.53 | 84 | 1012.0 |
| 20260502201602 | 13 | 0 | 0.0 | 0.0 | 0.00 | 0.53 | 0.53 | 83 | 1011.7 |
| 20260502200101 | 13 | 0 | 0.0 | 0.0 | 0.00 | 0.53 | 0.53 | 84 | 1011.9 |
| 20260502194617 | 13 | 0 | 0.0 | 0.0 | 0.00 | 0.53 | 0.53 | 86 | 1012.1 |
| 20260502193101 | 12 | 0 | 0.0 | 4.8 | 0.00 | 0.53 | 0.53 | 86 | 1012.5 |
| 20260502191559 | 12 | 0 | 0.0 | 1.6 | 0.00 | 0.53 | 0.53 | 89 | 1012.5 |
| 20260502190107 | 12 | 0 | 0.0 | 0.0 | 0.00 | 0.53 | 0.53 | 88 | 1012.5 |
| 20260502184557 | 12 | 0 | 0.0 | 4.8 | 0.00 | 0.53 | 0.53 | 89 | 1012.9 |
| 20260502183054 | 12 | 304 | 0.0 | 1.6 | 0.00 | 0.53 | 0.53 | 92 | 1012.8 |
| 20260502181552 | 11 | 0 | 0.0 | 1.6 | 0.00 | 0.53 | 0.53 | 92 | 1013.1 |
| 20260502180119 | 11 | 0 | 1.6 | 4.8 | 0.00 | 0.53 | 0.53 | 93 | 1013.2 |
| 20260502163051 | 11 | 0 | 0.0 | 0.0 | 0.05 | 0.51 | 0.51 | 95 | 1014.0 |
| 20260502161554 | 11 | 0 | 0.0 | 0.0 | 0.05 | 0.51 | 0.51 | 95 | 1014.3 |
| 20260502151600 | 11 | 0 | 0.0 | 0.0 | 0.08 | 0.46 | 0.46 | 96 | 1014.1 |
| 20260502123058 | 10 | 321 | 0.0 | 3.2 | 0.05 | 0.08 | 0.08 | 92 | 1012.7 |
| 20260502121603 | 10 | 0 | 0.0 | 4.8 | 0.05 | 0.05 | 0.05 | 91 | 1012.7 |
| 20260502114556 | 11 | 0 | 0.0 | 1.6 | 0.03 | 0.03 | 0.03 | 89 | 1012.9 |
| 20260502113057 | 11 | 0 | 0.0 | 3.2 | 0.03 | 0.03 | 0.03 | 88 | 1012.9 |
| 20260502111601 | 11 | 316 | 0.0 | 1.6 | 0.00 | 0.00 | 0.00 | 87 | 1013.1 |
| 20260502110051 | 11 | 309 | 0.0 | 4.8 | 0.00 | 0.00 | 0.00 | 85 | 1013.1 |
| 20260502104557 | 12 | 0 | 0.0 | 1.6 | 0.00 | 0.00 | 0.00 | 83 | 1013.1 |
| 20260502103105 | 12 | 12 | 0.0 | 1.6 | 0.00 | 0.00 | 0.00 | 83 | 1013.1 |
| 20260502101606 | 12 | 0 | 0.0 | 1.6 | 0.00 | 0.00 | 0.00 | 84 | 1013.0 |
| 20260502100110 | 12 | 0 | 0.0 | 1.6 | 0.00 | 0.00 | 0.00 | 87 | 1013.1 |
| 20260502080105 | 11 | 0 | 0.0 | 1.6 | 0.00 | 0.00 | 0.00 | 90 | 1012.5 |
| 20260502070054 | 11 | 0 | 0.0 | 0.0 | 0.00 | 0.00 | 0.00 | 90 | 1012.1 |
| 20260502064550 | 11 | 0 | 0.0 | 0.0 | 0.00 | 0.00 | 0.00 | 90 | 1012.2 |
| 20260502063054 | 11 | 0 | 0.0 | 0.0 | 0.00 | 0.00 | 0.00 | 90 | 1012.2 |
| 20260502061551 | 11 | 0 | 0.0 | 0.0 | 0.00 | 0.00 | 0.00 | 89 | 1012.3 |
| 20260502060056 | 11 | 0 | 0.0 | 0.0 | 0.00 | 0.00 | 0.00 | 89 | 1012.4 |
| 20260502054553 | 11 | 0 | 0.0 | 0.0 | 0.00 | 0.00 | 0.00 | 89 | 1012.5 |
| 20260502053103 | 11 | 0 | 0.0 | 0.0 | 0.00 | 0.00 | 0.00 | 89 | 1012.7 |
| 20260502051601 | 11 | 0 | 0.0 | 0.0 | 0.00 | 0.00 | 0.00 | 89 | 1012.9 |